Location: Leeds
(37.2390°N, 113.3580°W)
Time: 00:59:09
(UTC-07:00)

Daily predictions for brighter satellites

Satellite Brightness Start Highest point End
(mag) Time Altitude Azimuth Time Altitude Azimuth Time Altitude Azimuth
CZ-3 R/B 4.3 04:21:33 48° SW 04:21:44 48° SW 04:33:12 10° SSE
Cosmos 2237 Rocket 3.1 05:04:42 41° SSE 05:04:42 41° SSE 05:08:17 10° SSE
SL-16 R/B 3.4 05:04:45 30° NNE 05:06:37 39° ENE 05:11:53 10° SE
Cosmos 2297 Rocket 3.3 05:15:15 32° NNE 05:15:15 32° NNE 05:18:15 10° NNE
COSMO-SKYMED 1 4.3 05:11:13 10° SE 05:15:01 31° ENE 05:16:42 23° NNE
Cosmos 2233 Rocket 4.4 05:14:00 10° S 05:20:06 60° E 05:26:17 10° NNE
Cosmos 2227 Rocket 3.9 05:28:45 20° N 05:28:45 20° N 05:30:38 10° N
Cosmos 220 Rocket 4.0 05:38:38 78° NE 05:38:38 78° NE 05:42:48 10° NNE
Ariane Rocket 4.3 05:34:13 10° NNE 05:39:02 41° E 05:43:49 10° S
Cosmos 1816 Rocket 4.4 05:35:16 10° N 05:41:36 84° W 05:47:51 10° S
BREEZE-M DEB (TANK) 4.2 05:34:25 26° NW 05:44:34 88° SW 05:49:23 10° SE
Thor Agena Rocket 4.1 05:41:45 10° S 05:45:36 40° SW 05:45:36 40° SW
Tiangong 2 4.1 05:52:15 10° S 05:53:43 13° SE 05:55:11 10° ESE
Tsikada Rocket 4.1 05:49:34 20° NNW 05:53:56 54° W 06:00:01 10° SSW
CZ-4 R/B 4.1 05:55:12 10° NE 05:58:22 22° E 06:01:34 10° SSE
Cosmos 2333 Rocket 4.0 06:03:32 16° SW 06:03:32 16° SW 06:05:03 10° SSW
SKYMED 2 3.4 05:58:40 10° S 06:02:59 73° WSW 06:05:22 26° NNW
GPS 2-05 Rocket1 3.1 06:03:55 49° S 06:04:09 50° S 06:07:23 10° E
Cosmos 968 Rocket 3.5 06:01:28 10° SSW 06:06:38 59° WNW 06:11:51 10° N
Atlas 2A Centaur Rocket 4.2 06:04:55 10° SW 06:07:18 13° S 06:08:53 10° SSE
Cosmos 1464 Rocket 4.4 06:04:19 10° S 06:10:37 68° E 06:16:52 10° NNE
NOAA 6 4.4 06:10:54 10° N 06:15:42 39° WNW 06:20:30 10° SW
Cosmos 1328 3.8 06:16:15 24° NNW 06:18:28 55° W 06:22:21 10° S
Cosmos 773 Rocket 4.5 06:14:07 10° NNW 06:19:22 63° ENE 06:24:37 10° SSE
ISS -3.3 06:21:28 38° NW 06:22:33 73° NE 06:25:48 10° SE
Cosmos 304 Rocket 4.0 06:22:03 22° NW 06:24:45 45° WSW 06:29:17 10° S
Cosmos 2221 2.5 06:20:29 10° S 06:24:49 88° E 06:29:10 10° N
Cosmos 1072 Rocket 4.4 06:24:16 10° S 06:30:26 76° W 06:36:36 10° N
OAO 2 Rocket 3.5 06:27:30 23° W 06:30:27 61° S 06:35:19 10° ESE
USA 229 DEB 4.2 06:25:53 19° NW 06:30:36 42° WSW 06:37:18 10° S
USA 229 4.2 06:25:56 19° NW 06:30:42 43° WSW 06:37:26 10° S
Genesis I 3.9 06:28:50 12° NNW 06:32:23 52° ENE 06:36:12 10° SE
Aureole 2 Rocket 4.2 06:33:56 21° W 06:33:56 21° W 06:37:00 10° SSW
Cosmos 2058 2.8 06:29:58 10° NNW 06:34:04 69° W 06:38:10 10° S
CSL-04 Rocket 3.5 06:31:00 10° N 06:36:16 67° WNW 06:41:28 10° SSW
Cosmos 2227 4.1 06:31:33 10° SSW 06:37:06 62° WNW 06:42:41 10° NNE
Aureole 1 4.2 06:35:01 10° SSW 06:37:58 58° WNW 06:41:22 10° N
Cosmos 1777 Rocket 4.0 06:35:29 10° SSW 06:40:35 55° WNW 06:45:42 10° N
NOSS 3-1 (A) 4.2 06:36:52 10° NNW 06:44:39 81° ENE 06:53:06 10° SE
Cosmos 2237 Rocket 4.1 06:46:36 10° WSW 06:46:36 10° WSW 06:46:53 10° WSW
PSLV R/B 3.3 06:44:07 19° W 06:46:21 62° NNW 06:49:41 10° ENE
Cosmos 1703 3.2 06:43:36 10° N 06:47:32 84° W 06:51:28 10° S
DELTA 2 R/B (1) 3.7 06:43:27 10° WSW 06:49:00 77° SSE 06:54:35 10° ENE
SL-16 R/B 3.2 06:46:41 13° NW 06:50:28 26° WSW 06:55:05 10° SSW
COSMO-SKYMED 1 3.9 06:47:58 10° SW 06:51:11 20° W 06:53:55 12° NW
Helios 1B rocket 3.6 06:49:06 10° SE 06:53:01 45° ENE 06:56:57 10° N
ATLAS 2AS CENTAUR R/B 4.4 06:45:59 10° NNW 06:53:07 33° NE 06:59:51 10° ESE
ERBS 2.2 06:51:26 13° NW 06:54:25 83° SW 06:57:49 10° SE
Cosmos 2228 Rocket 4.1 06:51:36 10° S 06:55:55 52° E 07:00:13 10° NNE
Cosmos 2151 4.0 06:53:56 10° NNW 06:57:25 26° W 07:00:56 10° SW
Cosmos 2297 Rocket 4.0 06:57:07 11° NW 06:57:36 11° NW 06:58:50 10° NW
IDEFIX/ARIANE 42P 2.6 06:53:05 10° N 06:58:23 83° WNW 07:03:38 10° SSW
Cosmos 1356 Rocket 3.3 06:54:24 10° NNW 06:58:30 73° W 07:02:38 10° S
AQUARIUS 4.2 06:55:17 10° NNE 06:59:48 87° WNW 07:04:18 10° SSW
SJ-7 4.4 06:56:35 10° NNE 07:00:37 88° WNW 07:04:39 10° SSW
Cosmos 1340 Rocket 3.5 06:57:18 10° NNW 07:00:48 31° W 07:04:20 10° SSW
Cosmos 1271 Rocket 3.9 06:57:59 10° SW 07:00:56 21° WNW 07:03:52 10° NNW
Cosmos 1805 Rocket 3.6 06:57:54 10° NNW 07:02:14 57° W 07:06:31 10° S
Meteor 1-29 4.2 07:01:42 10° SSE 07:05:02 44° ENE 07:08:23 10° N
CZ-3 Stage 3 4.0 07:00:58 10° WSW 07:05:53 46° S 07:28:00 10° ESE
USA 234 3.5 07:02:51 10° SE 07:09:22 73° NE 07:15:55 10° NW
EP 2 4.1 07:09:54 10° SW 07:12:31 69° WNW 07:15:10 10° NNE
Cosmos 923 Rocket 4.2 07:11:00 10° NNW 07:16:07 56° WSW 07:21:14 10° S
Cosmos 1484 Rocket 3.2 07:12:17 10° NNE 07:16:18 71° E 07:20:15 10° S
SJ-12 4.4 07:13:39 10° N 07:17:27 38° WNW 07:21:13 10° SW
Ariane Rocket 4.1 07:13:52 10° NNW 07:17:41 22° WNW 07:21:30 10° WSW
Cosmos 1626 2.5 07:14:27 10° NNW 07:17:59 41° W 07:21:30 10° SSW
Cosmos 292 Rocket 3.9 07:15:49 10° NNW 07:20:30 56° WSW 07:25:10 10° S
